Home > Weather > London > Past weeks

Flag for United Kingdom Weather for the Past 2 Weeks in London, England, United Kingdom

Now
45 °F

Passing clouds.


Feels Like: 38 °F
Forecast: 44 / 51 °F
Wind: 15 mph from Southwest

Location: Northolt

Current Time: Feb 8, 2016 at 6:08:14 AM

Latest Report: Feb 8, 2016 at 4:50 AM


Visibility: N/A

Pressure: 29.03 "Hg

Humidity: 71%

Dew point: 36 °F

Location of LondonLocation

Historic Weather in London — Graph

°F

London Temperature Yesterday

Maximum temperature yesterday: 50 °F (at 12:50 PM)
Minimum temperature yesterday: 41 °F (at 1:50 AM)
Average temperature yesterday: 45 °F

High & Low Weather Summary for the Past Weeks

 TemperatureHumidityPressure
High61 °F (Jan 24, 12:50 PM)94% (Jan 24, 4:50 AM)30.36 "Hg (Jan 24, 4:50 AM)
Low36 °F (Jan 28, 5:50 AM)46% (Jan 30, 1:50 PM)29.03 "Hg (Feb 8, 3:50 AM)
Average49 °F79%29.92 "Hg
* Reported Jan 24 4:50 AM — Feb 8 4:50 AM, London, Weather by CustomWeather, © 2016

Note: Actual official high and low records may vary slightly from our data, if they occured in-between our weather recording intervals... More about our weather records

Advertising

London Weather History for the Previous 24 Hours

 ConditionsComfort  
Time TempWeatherWind HumidityBarometerVisibility
4:50 AM
Mon, Feb 8
45 °FPassing clouds.15 mph71%29.03 "HgN/A
3:50 AM46 °FPassing clouds.18 mph71%29.03 "HgN/A
2:50 AM46 °FPassing clouds.18 mph71%29.06 "HgN/A
1:50 AM48 °FPassing clouds.20 mph76%29.06 "HgN/A
12:50 AM46 °FPassing clouds.13 mph76%29.06 "HgN/A
11:50 PM
Sun, Feb 7
48 °FPassing clouds.21 mph76%29.09 "HgN/A
10:50 PM48 °FPassing clouds.15 mph94%29.06 "HgN/A
9:50 PM48 °FPassing clouds.18 mph94%29.09 "Hg3 mi
8:50 PM46 °FPartly cloudy.22 mph87%29.15 "Hg3 mi
7:50 PM45 °FPartly cloudy.21 mph93%29.21 "Hg2 mi
6:50 PM45 °FLight rain. Mostly cloudy.17 mph87%29.27 "HgN/A
5:50 PM45 °FLight rain. Mostly cloudy.18 mph81%29.33 "HgN/A
4:50 PM48 °FMore clouds than sun.17 mph58%29.36 "HgN/A
3:50 PM48 °FPartly sunny.17 mph58%29.36 "HgN/A
2:50 PM48 °FPartly sunny.22 mph54%29.39 "HgN/A
1:50 PM48 °FBroken clouds.23 mph54%29.39 "HgN/A
12:50 PM50 °FScattered clouds.21 mph58%29.39 "HgN/A
11:50 AM48 °FScattered clouds.22 mph62%29.36 "HgN/A
10:50 AM46 °FScattered clouds.20 mph66%29.36 "HgN/A
9:50 AM45 °FScattered clouds.17 mph71%29.33 "HgN/A
8:50 AM43 °FPassing clouds.12 mph76%29.33 "HgN/A
7:50 AM41 °FPassing clouds.14 mph81%29.30 "HgN/A
6:50 AM41 °FPassing clouds.13 mph81%29.30 "HgN/A
Weather by CustomWeather, © 2016

See weather overviewHow to use our weather pages